Overview Statistics Trail Chart Weather Telemetry Raw packets
 

This is the latest recevied weather packets stored in our database for station/object SO5BO-13. If no packets are shown the sender has not sent any weather packets the latest 10 day(s).

<< 1 2 3 4 5 >>
Time Temp. Humidity Pressure Rain* Wind** Luminosity Snow
1788434862 22.22° C 60% 1018.2 hPa 0 mm - 533 W/m² -
1788434562 22.22° C 60% 1018.5 hPa 0 mm - 486 W/m² -
1788434262 22.78° C 60% 1018.7 hPa 0 mm - 155 W/m² -
1788433962 22.78° C 59% 1018.7 hPa 0 mm - 165 W/m² -
1788433662 22.78° C 60% 1018.7 hPa 0 mm - 204 W/m² -
1788433362 22.78° C 59% 1018.7 hPa 0 mm - 516 W/m² -
1788433062 22.78° C 60% 1018.7 hPa 0 mm - 473 W/m² -
1788432762 22.78° C 60% 1018.6 hPa 0 mm - 545 W/m² -
1788432461 22.78° C 59% 1018.7 hPa 0 mm - 153 W/m² -
1788432162 23.33° C 59% 1018.7 hPa 0 mm - 300 W/m² -
1788431862 23.33° C 59% 1018.9 hPa 0 mm - 106 W/m² -
1788431587 23.33° C 59% 1018.8 hPa 0 mm - 554 W/m² -
1788431262 23.33° C 59% 1019 hPa 0 mm - 544 W/m² -
1788430962 23.33° C 60% 1019 hPa 0 mm - 550 W/m² -
1788430662 23.33° C 60% 1018.9 hPa 0 mm - 535 W/m² -
1788430362 23.33° C 60% 1019.1 hPa 0 mm - 527 W/m² -
1788430062 23.33° C 60% 1019 hPa 0 mm - 530 W/m² -
1788429761 22.78° C 60% 1019.1 hPa 0 mm - 526 W/m² -
1788429462 22.78° C 60% 1019.2 hPa 0 mm - 539 W/m² -
1788429162 22.78° C 61% 1019.2 hPa 0 mm - 525 W/m² -
1788428862 22.78° C 61% 1019.4 hPa 0 mm - 478 W/m² -
1788428562 22.78° C 62% 1019.1 hPa 0 mm - 515 W/m² -
1788428262 22.78° C 62% 1019.3 hPa 0 mm - 517 W/m² -
1788427962 22.78° C 63% 1019.2 hPa 0 mm - 509 W/m² -
1788427662 22.22° C 63% 1019.3 hPa 0 mm - 494 W/m² -

* Rain latest hour (hover to see other rain measurements)
** Current wind speed in m/s (hover to see current wind gust speed)